ソーホー彗星

323P/SOHO (2004)

English version
Home page
Updated on June 14, 2015

---------------------------------------------------------------------

・ プロフィール

符号 323P/2004 E2

・ 軌道要素

Epoch 2004 Mar. 16.0 TT = JDT 2453080.5
T 2004 Mar. 12.32668 TT                                 MPCW
q   0.0483164            (2000.0)            P               Q
n   0.23351330     Peri.  353.06258     +0.73457815     +0.67562583
a   2.6117301      Node   324.17472     -0.61727828     +0.62708466
e   0.9815002      Incl.    6.14423     -0.28171345     +0.38767843
P   4.22
From 47 observations 1999 Dec. 12-2012 Aug. 20.

・ 光度変化

        m1 = 20 + 5 logΔ + 10 log r

---------------------------------------------------------------------

軌道要素はM.P.E.C. 2015-K01に掲載されたものです。
光度グラフはComet for Windowsで作成したものです。

---------------------------------------------------------------------

Copyright(C) Seiichi Yoshida (comet@aerith.net). All rights reserved.